Date String (YYYY-MM-DD hh:mm:ss) UTC,Instrument flags,Ambient pressure (hPa),Sample flow (lpm),Bypass flow (lpm),Sample temperature (°C),Ambient temperature (°C),ASC tube jacket temperature (°C),LED temperature (°C),Box temperature (°C),Sample RH (%),Span deviation,Mass concentration (μg/m³),Mass concentration (μg/m³),Mass concentration (μg/m³)
DateTimeUTC,F1_M11,P_M11,Q1_M11,Q2_M11,T1_M11,T2_M11,T3_M11,T4_M11,T5_M11,U1_M11,ZSPAN_M11,X0_M11,X2_M11,X1_M11
2023-01-21 09:00:00,,0826.0,5.00,0.00,22.4,21.1,00.0,31.1,24.1,08.8,0000.0,0008.77,0004.99,0004.74
2023-01-21 09:01:00,,0826.0,4.99,0.00,22.4,20.9,00.0,31.1,24.0,08.8,0000.0,0008.99,0005.01,0004.77
2023-01-21 09:02:00,,0826.0,5.01,0.00,22.3,20.7,00.0,31.1,24.0,08.9,0000.0,0009.29,0005.07,0004.82
2023-01-21 09:03:00,,0826.0,5.00,0.00,22.3,20.7,00.0,31.1,24.0,08.9,0000.0,0009.32,0005.12,0004.88
2023-01-21 09:04:00,,0826.0,5.00,0.00,22.3,20.6,00.0,31.1,23.9,08.9,0000.0,0009.44,0005.20,0004.92
2023-01-21 09:05:00,,0826.0,5.00,0.00,22.2,20.5,00.0,31.1,23.9,08.9,0000.0,0009.41,0005.25,0004.95
2023-01-21 09:06:00,,0826.0,5.01,0.00,22.2,21.2,00.0,31.1,24.0,08.9,0000.0,0009.25,0005.26,0004.96
2023-01-21 09:07:00,,0826.0,5.00,0.00,22.3,22.2,00.0,31.1,24.2,08.9,0000.0,0009.17,0005.25,0004.95
2023-01-21 09:08:00,,0826.1,5.00,0.00,22.5,22.8,00.0,31.1,24.4,08.9,0000.0,0009.09,0005.22,0004.93
2023-01-21 09:09:00,,0826.0,4.99,0.00,22.5,22.5,00.0,31.1,24.4,08.9,0000.0,0009.03,0005.19,0004.92
2023-01-21 09:10:00,,0826.0,5.01,0.00,22.5,22.0,00.0,31.2,24.4,08.8,0000.0,0008.65,0005.17,0004.90
2023-01-21 09:11:00,,0826.1,4.99,0.00,22.5,21.6,00.0,31.2,24.3,08.8,0000.0,0008.67,0005.14,0004.89
2023-01-21 09:12:00,,0826.0,5.00,0.00,22.4,21.3,00.0,31.2,24.2,08.8,0000.0,0008.58,0005.12,0004.87
2023-01-21 09:13:00,,0826.1,4.99,0.00,22.4,21.0,00.0,31.2,24.1,08.9,0000.0,0008.29,0005.09,0004.84
2023-01-21 09:14:00,,0826.2,5.00,0.00,22.4,20.9,00.0,31.2,24.1,08.9,0000.0,0008.23,0005.04,0004.79
2023-01-21 09:15:00,,0826.2,5.01,0.00,22.3,20.7,00.0,31.2,24.0,08.9,0000.0,0008.16,0005.00,0004.77
2023-01-21 09:16:00,,0826.2,5.01,0.00,22.3,20.6,00.0,31.1,23.9,08.9,0000.0,0008.34,0004.97,0004.75
2023-01-21 09:17:00,,0826.2,5.00,0.00,22.3,20.5,00.0,31.1,23.9,08.9,0000.0,0008.50,0004.95,0004.75
2023-01-21 09:18:00,,0826.2,5.00,0.00,22.2,20.5,00.0,31.1,23.9,09.0,0000.0,0008.56,0004.96,0004.77
2023-01-21 09:19:00,,0826.2,5.01,0.00,22.3,21.4,00.0,31.1,24.0,09.0,0000.0,0008.61,0005.00,0004.80
2023-01-21 09:20:00,,0826.2,5.00,0.00,22.4,22.4,00.0,31.1,24.3,08.9,0000.0,0008.47,0005.05,0004.84
2023-01-21 09:21:00,,0826.2,5.00,0.00,22.5,22.9,00.0,31.1,24.5,08.9,0000.0,0008.76,0005.09,0004.86
2023-01-21 09:22:00,,0826.2,5.00,0.00,22.5,22.5,00.0,31.2,24.4,08.8,0000.0,0008.76,0005.14,0004.87
2023-01-21 09:23:00,,0826.1,4.99,0.00,22.5,22.0,00.0,31.2,24.3,08.8,0000.0,0008.64,0005.16,0004.88
2023-01-21 09:24:00,,0826.1,4.97,0.00,22.5,21.6,00.0,31.2,24.2,08.8,0000.0,0008.67,0005.18,0004.88
2023-01-21 09:25:00,,0826.1,4.98,0.00,22.5,21.2,00.0,31.2,24.2,08.8,0000.0,0008.69,0005.17,0004.86
2023-01-21 09:26:00,,0826.2,4.99,0.00,22.5,21.0,00.0,31.2,24.1,08.8,0000.0,0008.68,0005.17,0004.85
2023-01-21 09:27:00,,0826.1,5.00,0.00,22.4,20.9,00.0,31.2,24.1,08.8,0000.0,0008.50,0005.15,0004.84
2023-01-21 09:28:00,,0826.1,5.01,0.00,22.4,20.7,00.0,31.2,24.0,08.9,0000.0,0008.27,0005.19,0004.86
2023-01-21 09:29:00,,0826.1,5.00,0.00,22.3,20.6,00.0,31.2,24.0,08.9,0000.0,0008.22,0005.23,0004.89
2023-01-21 09:30:00,,0826.2,5.00,0.00,22.3,20.6,00.0,31.2,23.9,08.9,0000.0,0008.25,0005.28,0004.93
2023-01-21 09:31:00,,0826.1,4.99,0.00,22.3,20.5,00.0,31.1,23.9,08.9,0000.0,0008.20,0005.25,0004.90
2023-01-21 09:32:00,,0826.2,5.00,0.00,22.2,20.7,00.0,31.1,23.9,09.0,0000.0,0007.97,0005.25,0004.91
2023-01-21 09:33:00,,0826.1,5.00,0.00,22.3,21.6,00.0,31.1,24.1,08.9,0000.0,0007.84,0005.22,0004.91
2023-01-21 09:34:00,,0826.2,5.00,0.00,22.4,22.6,00.0,31.1,24.4,08.9,0000.0,0007.79,0005.21,0004.92
2023-01-21 09:35:00,,0826.2,4.99,0.00,22.5,23.0,00.0,31.2,24.5,08.8,0000.0,0007.75,0005.20,0004.94
2023-01-21 09:36:00,,0826.2,5.00,0.00,22.6,22.5,00.0,31.2,24.5,08.8,0000.0,0007.74,0005.25,0004.98
2023-01-21 09:37:00,,0826.1,5.01,0.00,22.6,22.0,00.0,31.2,24.4,08.8,0000.0,0007.79,0005.28,0005.02
2023-01-21 09:38:00,,0826.2,5.00,0.00,22.5,21.6,00.0,31.2,24.3,08.8,0000.0,0007.86,0005.33,0005.06
2023-01-21 09:39:00,,0826.1,4.99,0.00,22.5,21.3,00.0,31.2,24.2,08.8,0000.0,0007.85,0005.35,0005.11
2023-01-21 09:40:00,,0826.2,4.99,0.00,22.5,21.1,00.0,31.2,24.2,08.8,0000.0,0007.83,0005.35,0005.11
2023-01-21 09:41:00,,0826.1,5.00,0.00,22.5,20.9,00.0,31.2,24.1,08.8,0000.0,0007.81,0005.32,0005.11
2023-01-21 09:42:00,,0826.2,5.01,0.00,22.4,20.8,00.0,31.2,24.1,08.8,0000.0,0007.88,0005.37,0005.14
2023-01-21 09:43:00,,0826.2,5.02,0.00,22.4,20.7,00.0,31.2,24.0,08.8,0000.0,0007.90,0005.40,0005.16
2023-01-21 09:44:00,,0826.2,5.00,0.00,22.4,20.7,00.0,31.2,24.0,08.9,0000.0,0007.99,0005.44,0005.18
2023-01-21 09:45:00,,0826.2,5.01,0.00,22.3,20.6,00.0,31.2,24.0,08.9,0000.0,0008.04,0005.47,0005.19
2023-01-21 09:46:00,,0826.2,5.00,0.00,22.3,20.8,00.0,31.2,24.0,08.9,0000.0,0008.09,0005.50,0005.20
2023-01-21 09:47:00,,0826.2,5.00,0.00,22.4,21.8,00.0,31.1,24.2,08.9,0000.0,0008.10,0005.51,0005.20
2023-01-21 09:48:00,,0826.2,5.01,0.00,22.5,22.7,00.0,31.1,24.4,08.8,0000.0,0008.10,0005.50,0005.19
2023-01-21 09:49:00,,0826.1,5.00,0.00,22.6,22.9,00.0,31.2,24.6,08.8,0000.0,0008.14,0005.51,0005.17
2023-01-21 09:50:00,,0826.1,4.99,0.00,22.6,22.4,00.0,31.2,24.5,08.7,0000.0,0008.13,0005.48,0005.13
2023-01-21 09:51:00,,0826.1,5.02,0.00,22.6,22.0,00.0,31.3,24.4,08.7,0000.0,0008.43,0005.46,0005.09
2023-01-21 09:52:00,,0826.0,5.01,0.00,22.6,21.6,00.0,31.3,24.3,08.7,0000.0,0008.90,0005.44,0005.06
2023-01-21 09:53:00,,0826.0,5.00,0.00,22.6,21.3,00.0,31.3,24.3,08.8,0000.0,0008.85,0005.42,0005.05
2023-01-21 09:54:00,,0826.0,5.00,0.00,22.5,21.1,00.0,31.3,24.2,08.8,0000.0,0008.81,0005.38,0005.04
2023-01-21 09:55:00,,0826.0,5.00,0.00,22.5,20.9,00.0,31.3,24.1,08.8,0000.0,0008.67,0005.32,0004.99
2023-01-21 09:56:00,,0826.0,4.97,0.00,22.5,20.8,00.0,31.3,24.1,08.8,0000.0,0008.64,0005.30,0004.96
2023-01-21 09:57:00,,0826.0,5.01,0.00,22.4,20.7,00.0,31.2,24.0,08.8,0000.0,0008.57,0005.25,0004.94
2023-01-21 09:58:00,,0825.9,5.00,0.00,22.4,20.6,00.0,31.2,24.0,08.8,0000.0,0008.51,0005.20,0004.92
2023-01-21 09:59:00,,0825.9,5.01,0.00,22.3,20.5,00.0,31.2,24.0,08.8,0000.0,0009.05,0005.18,0004.90
